Date,TemperatureHighF,TemperatureAvgF,TemperatureLowF,DewpointHighF,DewpointAvgF,DewpointLowF,HumidityHigh,HumidityAvg,HumidityLow,PressureMaxIn,PressureMinIn,WindSpeedMaxMPH,WindSpeedAvgMPH,GustSpeedMaxMPH,PrecipitationSumIn
2013-1-1,34.4,15.0,-30.2,18.6,8.3,-30.2,100,75,50,30.39,30.27,10,3,24,0.00
2013-1-2,17.2,-7.4,-49.6,11.5,-11.2,-49.6,100,85,73,30.35,30.24,7,1,10,0.00
2013-1-3,31.9,7.1,-43.1,15.3,-2.2,-48.1,100,69,47,30.26,30.12,18,5,24,0.00
2013-1-4,42.7,29.7,21.8,25.9,18.6,13.5,74,63,49,30.26,30.15,26,7,29,0.01
2013-1-5,29.9,25.7,21.2,23.5,17.6,12.9,82,71,62,30.17,30.08,13,3,20,0.00
2013-1-6,42.4,32.1,24.9,27.9,23.2,17.6,78,70,54,30.12,30.03,23,8,29,0.01
2013-1-7,45.5,38.9,32.2,35.4,30.2,24.0,85,71,58,30.11,29.97,34,16,41,0.00
2013-1-8,46.1,41.0,36.8,36.6,33.2,28.2,85,74,64,30.14,30.03,28,13,39,0.00
2013-1-9,44.3,35.0,24.8,31.6,25.0,17.6,80,67,53,29.88,29.75,25,8,39,0.02
2013-1-10,32.6,24.8,21.0,24.5,15.9,11.4,100,70,45,29.93,29.83,23,4,28,0.02
2013-1-11,26.1,13.4,-40.7,17.9,4.4,-40.7,100,69,46,30.13,29.92,16,3,19,0.00
2013-1-12,26.0,13.2,-4.6,9.7,2.8,-12.8,100,64,40,30.19,30.08,17,5,23,0.00
2013-1-13,27.0,13.2,-4.6,14.8,2.8,-4.6,100,69,33,30.26,30.16,13,1,16,0.00
2013-1-14,40.1,23.1,10.7,20.1,8.6,0.2,67,54,35,30.33,30.22,27,9,31,0.00
2013-1-15,51.2,33.1,21.8,22.7,16.9,10.8,69,53,31,30.49,30.32,25,12,32,0.00
2013-1-16,54.0,35.9,23.3,19.2,16.6,13.2,67,48,24,30.49,30.39,25,13,34,0.00
2013-1-17,54.1,36.8,26.3,22.1,17.6,14.2,64,47,25,30.41,30.28,26,9,31,0.00
2013-1-18,54.8,36.7,25.5,22.7,17.1,13.8,62,46,23,30.30,30.23,29,12,34,0.00
2013-1-19,57.5,37.1,25.7,22.8,16.0,13.6,61,44,18,30.32,30.25,25,11,31,0.00
2013-1-20,49.8,33.7,22.8,17.5,14.4,11.2,63,46,27,30.34,30.23,21,7,28,0.00
2013-1-21,54.5,34.4,12.8,18.9,13.1,9.8,100,43,17,30.25,30.12,27,6,27,0.00
2013-1-22,50.3,35.3,26.5,20.7,14.7,11.3,60,44,23,30.15,30.00,16,5,20,0.00
2013-1-23,47.5,42.9,35.5,33.1,25.6,15.0,81,54,30,30.08,29.81,24,9,35,0.03
2013-1-24,50.1,41.1,33.1,36.2,32.9,29.5,88,74,53,30.12,30.05,19,7,25,0.04
2013-1-25,42.7,40.9,37.2,37.6,35.9,33.4,88,82,74,30.11,29.89,22,9,28,0.03
2013-1-26,39.3,33.8,28.3,33.3,22.0,17.8,87,62,43,29.96,29.86,18,7,24,0.00
2013-1-27,35.3,29.8,24.9,23.8,20.4,15.2,81,69,45,30.02,29.93,13,6,19,0.00
2013-1-28,36.9,32.6,-1.0,30.7,23.9,-1.0,100,71,56,30.04,29.93,24,7,34,0.00
2013-1-29,46.9,38.3,34.6,31.6,27.2,24.5,73,64,54,30.31,30.02,24,10,29,0.00
2013-1-30,46.2,39.2,34.8,33.2,29.7,24.5,79,69,59,30.35,30.29,26,10,27,0.00
2013-1-31,47.4,36.4,28.9,31.7,28.0,24.0,85,72,53,30.31,30.22,18,6,21,0.00
2013-2-1,48.8,36.0,26.2,33.0,25.5,20.9,84,67,40,30.32,30.21,15,6,19,0.00
2013-2-2,48.7,35.6,24.9,31.5,25.7,19.6,80,68,46,30.33,30.20,10,4,59,0.00
2013-2-3,56.5,42.0,30.4,27.7,23.7,18.5,77,51,25,30.22,30.10,20,9,26,0.00
2013-2-4,53.5,43.8,37.8,25.4,20.8,13.9,54,40,22,30.12,29.91,17,7,23,0.00
2013-2-5,43.4,39.4,33.5,29.3,21.4,14.5,74,50,33,30.00,29.87,23,9,33,0.00
2013-2-6,45.9,37.7,32.4,24.7,21.8,17.9,72,54,33,30.05,29.85,23,8,28,0.00
2013-2-7,38.7,32.9,28.0,26.6,20.9,11.6,78,62,35,29.99,29.84,18,6,25,0.00
2013-2-8,36.4,29.8,23.6,22.3,17.8,10.7,78,62,34,30.08,29.99,17,6,27,0.00
2013-2-9,41.3,29.2,0.5,27.3,19.2,0.5,100,67,54,30.14,30.04,16,5,20,0.00
2013-2-10,41.8,32.6,25.2,25.2,20.3,16.6,82,62,38,30.20,30.13,14,4,18,0.00
2013-2-11,47.8,34.6,24.5,29.5,22.5,17.8,78,62,38,30.24,30.11,23,10,62,0.00
2013-2-12,47.2,37.0,30.7,29.8,26.3,22.6,81,66,40,30.34,30.24,15,7,23,0.00
2013-2-13,45.3,37.9,31.2,32.0,28.5,25.8,81,69,55,30.41,30.27,13,6,25,0.00
2013-2-14,50.6,38.5,30.1,33.4,29.6,25.6,84,72,50,30.42,30.34,16,7,21,0.00
2013-2-15,55.9,40.6,30.0,35.7,30.4,25.3,84,69,43,30.41,30.20,14,5,15,0.00
2013-2-16,51.5,38.5,26.7,30.4,23.8,16.5,79,57,31,30.21,30.08,22,8,25,0.00
2013-2-17,43.7,31.4,23.5,21.9,17.2,6.7,78,59,23,30.13,29.98,11,4,16,0.00
2013-2-18,28.2,26.7,25.6,19.5,18.8,17.9,74,72,68,29.98,29.89,7,2,13,1.28
2013-2-19,37.1,30.7,24.0,26.2,19.0,16.6,74,62,44,29.87,29.63,12,5,18,0.00
2013-2-20,39.3,30.3,20.1,21.6,17.5,12.3,76,60,41,29.97,29.87,14,5,72,0.20
2013-2-21,37.0,31.0,23.5,23.6,21.1,17.2,80,67,45,30.08,29.95,21,8,26,1.28
2013-2-22,43.4,33.9,27.2,31.5,25.6,19.7,86,72,55,30.07,29.82,28,12,41,0.07
2013-2-23,36.0,29.3,23.6,22.9,17.7,11.8,77,62,37,30.25,29.94,18,6,26,0.00
2013-2-24,44.0,31.5,21.3,28.6,20.4,14.6,76,64,44,30.27,30.02,22,9,24,0.00
2013-2-25,37.0,33.0,25.3,29.5,20.4,11.1,84,60,40,30.22,29.95,26,9,34,0.01
2013-2-26,45.3,33.5,22.1,19.4,15.2,9.6,74,50,27,30.24,30.13,20,8,25,0.00
2013-2-27,44.6,37.5,31.1,30.9,21.2,14.0,66,52,41,30.24,30.16,22,9,26,0.00
2013-2-28,50.1,42.8,37.2,39.0,35.0,28.6,82,74,60,30.39,30.17,21,10,29,0.00
2013-3-1,58.9,46.6,39.4,35.4,32.8,28.6,79,60,34,30.42,30.26,19,8,25,0.00
2013-3-2,53.7,43.7,37.3,33.4,30.2,25.0,73,60,33,30.27,30.05,20,9,23,0.00
2013-3-3,39.9,34.3,25.5,30.4,16.9,2.6,79,52,21,30.15,30.05,18,5,21,0.00
2013-3-4,49.8,33.3,19.7,19.7,15.8,11.5,100,52,27,30.14,29.91,11,3,19,0.00
2013-3-5,41.7,33.0,27.6,30.7,23.3,15.9,87,68,52,29.92,29.65,9,3,14,0.02
2013-3-6,39.2,32.9,29.5,32.5,26.1,21.0,89,76,56,29.91,29.51,19,7,28,0.07
2013-3-7,42.0,33.2,25.1,26.3,21.9,18.2,80,64,40,29.98,29.89,16,5,17,0.01
2013-3-8,41.6,33.3,26.7,28.8,24.4,19.1,83,70,50,30.12,29.92,20,5,21,0.01
2013-3-9,41.7,29.5,24.2,23.5,18.7,16.5,74,64,43,30.38,30.11,14,7,20,0.00
2013-3-10,56.9,41.3,28.2,35.1,24.0,13.2,72,53,20,30.38,30.26,22,9,27,0.00
2013-3-11,53.1,44.8,37.8,38.1,35.3,30.9,82,70,52,30.31,30.19,14,6,21,0.00
2013-3-12,61.2,47.5,35.6,37.3,28.5,18.1,85,54,21,30.21,30.09,20,8,32,0.00
2013-3-13,64.3,51.3,41.7,35.4,29.0,21.3,63,43,30,30.19,30.11,18,6,21,0.00
2013-3-14,63.0,49.3,39.1,32.7,27.0,18.0,66,45,19,30.16,30.06,23,9,25,0.00
2013-3-15,54.9,46.7,39.3,35.7,31.9,28.7,76,57,40,30.28,30.09,16,5,23,0.00
2013-3-16,48.5,40.6,32.9,30.9,27.5,21.1,80,60,39,30.13,29.91,19,4,25,0.00
2013-3-17,39.5,32.1,26.4,24.1,18.0,12.8,77,57,40,30.12,29.95,17,5,35,0.00
2013-3-18,48.3,36.2,26.1,23.6,16.1,-6.6,75,50,10,30.14,30.05,15,5,19,0.00
2013-3-19,51.3,31.4,-7.4,43.8,19.3,-7.4,100,65,33,30.10,29.74,10,2,227,0.02
2013-3-20,44.6,39.7,30.5,38.2,30.5,15.5,83,70,47,30.02,29.63,25,6,41,1.41
2013-3-21,38.4,31.2,25.8,27.4,17.6,11.7,100,58,40,30.13,30.01,17,4,29,0.00
2013-3-22,33.8,29.5,26.8,28.0,19.3,7.3,100,71,33,30.21,30.09,227,6,227,0.55
2013-3-23,40.5,31.9,25.9,26.8,19.7,11.0,100,66,32,30.21,30.11,11,3,227,0.55
2013-3-24,43.4,34.4,24.7,23.0,19.6,14.7,71,55,42,30.16,30.04,11,3,16,0.00
2013-3-25,48.1,39.2,29.1,28.0,25.0,20.9,73,57,44,30.06,29.89,14,4,16,0.00
2013-3-26,45.5,39.5,34.2,35.8,32.8,28.0,87,77,65,29.96,29.90,14,3,16,0.02
2013-3-27,53.7,41.7,31.3,40.1,34.8,27.6,89,78,49,29.99,29.88,16,4,25,0.07
2013-3-28,54.8,44.9,39.0,41.2,38.3,35.7,90,79,49,30.11,29.97,12,3,36,0.12
2013-3-29,58.3,47.5,37.3,43.2,38.4,34.4,91,73,46,30.19,30.10,14,4,19,0.01
2013-3-30,65.9,50.7,35.1,42.7,37.6,31.0,85,63,34,30.20,30.06,15,6,64,0.00
2013-3-31,61.7,51.1,35.3,42.6,37.2,29.8,82,61,38,30.07,29.93,16,6,21,0.00
2013-4-1,58.6,49.8,41.2,58.6,38.6,35.7,100,66,48,30.11,29.95,17,6,21,0.00
2013-4-2,61.8,47.0,36.4,39.5,36.0,31.8,85,67,41,30.15,30.07,16,6,23,0.00
2013-4-3,64.5,50.0,34.3,37.8,31.8,23.1,88,55,21,30.14,29.97,20,7,24,0.00
2013-4-4,59.3,49.7,43.0,40.8,36.1,32.6,73,60,44,29.98,29.77,29,6,38,0.00
2013-4-5,52.6,44.2,39.7,39.3,35.1,32.2,82,71,46,29.98,29.89,21,7,27,0.08
2013-4-6,48.5,39.0,-41.8,38.4,30.1,-41.8,100,72,18,29.98,29.78,25,4,227,0.06
2013-4-7,43.5,38.8,32.5,35.5,28.7,21.4,84,68,46,29.83,29.63,31,7,39,0.06
2013-4-8,43.4,35.3,25.8,24.7,22.2,19.3,79,60,46,30.16,29.83,27,7,32,0.00
2013-4-9,54.2,38.6,-25.9,34.7,23.5,-25.9,100,59,24,30.26,30.16,17,4,19,0.00
2013-4-10,54.0,46.9,35.4,44.0,34.6,27.0,76,63,40,30.22,30.08,27,10,40,0.01
2013-4-11,50.7,39.6,28.9,27.9,24.0,18.7,80,56,28,30.19,30.07,20,5,24,0.00
2013-4-12,59.8,42.4,27.2,34.0,25.0,9.5,76,55,15,30.09,29.75,27,10,34,1.00
2013-4-13,45.4,38.6,27.6,32.7,18.5,10.3,67,45,27,29.99,29.75,32,10,44,0.00
2013-4-14,37.8,31.5,25.9,26.8,21.0,15.8,100,66,42,30.01,29.82,14,3,18,0.00
2013-4-15,36.1,29.4,4.4,30.0,25.1,4.4,100,84,64,30.04,29.81,144,4,227,0.09
2013-4-16,38.7,32.2,28.3,30.5,27.2,21.0,100,83,50,30.27,30.03,227,5,228,2.34
2013-4-17,45.8,32.2,10.1,24.5,17.3,2.6,100,59,27,30.35,30.26,16,5,25,0.00
2013-4-18,55.6,43.6,31.4,37.0,30.6,22.5,75,61,46,30.34,30.24,24,7,28,2.66
2013-4-19,53.3,46.5,36.8,37.7,34.7,29.3,79,64,45,30.26,30.10,30,10,41,0.00
2013-4-20,54.8,44.0,33.7,33.4,29.9,25.0,83,60,34,30.22,30.14,18,6,228,0.00
2013-4-21,56.3,45.6,35.2,36.8,32.6,27.8,78,62,42,30.18,30.11,19,6,24,0.00
2013-4-22,49.1,40.8,34.1,47.9,23.6,14.5,100,54,27,30.34,30.18,16,5,23,2.56
2013-4-23,58.2,33.9,-10.2,57.7,18.9,-10.2,100,67,10,30.33,30.07,9,1,227,1.28
2013-4-24,64.2,47.5,29.8,20.5,15.6,11.9,54,30,13,30.25,30.04,18,5,21,0.00
2013-4-25,67.4,52.6,35.0,33.7,26.1,16.9,56,37,24,30.17,30.01,23,10,30,0.00
2013-4-26,72.3,56.9,40.2,36.5,30.1,22.3,71,42,17,30.24,30.15,20,8,24,1.28
2013-4-28,50.5,49.5,48.4,33.4,31.3,28.3,56,50,42,30.10,30.07,23,16,34,0.00
2013-4-29,52.5,46.3,33.6,39.4,30.8,20.9,79,56,32,30.08,29.98,27,10,33,0.00
2013-4-30,46.5,26.6,-42.9,23.3,9.8,-42.9,100,55,27,30.31,30.03,25,6,30,1.28
2013-5-1,58.3,39.5,-25.2,29.5,14.8,-25.2,100,44,16,30.46,30.31,14,5,37,2.56
2013-5-2,71.4,54.2,32.3,22.8,16.5,6.1,61,27,9,30.46,30.23,18,6,23,2.56
2013-5-3,65.2,55.3,40.1,31.5,26.4,21.9,52,34,20,30.30,30.16,21,8,55,1.28
2013-5-4,62.9,55.2,47.0,32.7,28.4,25.2,45,36,27,30.19,29.96,30,8,46,6.40
2013-5-5,67.4,56.8,46.2,47.4,30.5,27.5,100,38,27,29.98,29.82,28,10,39,3.84
2013-5-6,73.3,62.0,47.2,43.6,33.4,28.8,62,36,23,29.93,29.82,36,6,37,0.00
2013-5-7,72.4,60.9,48.1,60.4,41.7,31.8,100,53,24,30.01,29.88,24,8,33,1.28
2013-5-8,74.5,59.8,46.2,46.9,42.4,30.3,85,57,20,30.13,30.00,21,6,37,2.68
2013-5-9,77.3,61.0,48.1,47.5,44.1,39.0,83,57,26,30.20,30.09,20,7,37,3.84
2013-5-10,80.4,64.3,47.6,50.0,44.1,39.0,81,52,23,30.24,30.15,18,8,62,3.84
2013-5-11,82.9,68.5,53.9,68.8,47.4,37.3,100,51,21,30.25,30.09,16,6,23,0.02
2013-5-12,78.6,66.5,57.0,76.1,48.5,41.4,100,56,28,30.15,30.03,19,8,32,2.56
2013-5-13,66.4,56.5,44.4,47.0,40.6,33.4,76,56,39,30.16,30.04,33,8,73,5.12
2013-5-14,63.5,50.1,34.3,52.7,36.1,29.7,100,62,34,30.15,30.03,18,5,227,0.10
2013-5-15,58.7,41.3,-8.3,52.7,31.4,-11.1,100,71,43,30.09,29.98,227,5,227,0.05
2013-5-16,54.2,46.6,39.4,45.7,39.8,33.8,100,78,56,30.03,29.90,16,3,22,0.11
2013-5-17,54.2,46.5,40.4,40.5,36.5,32.5,88,69,47,30.06,29.93,17,3,23,0.01
2013-5-18,54.2,44.8,36.2,41.4,35.1,29.9,81,69,53,30.22,30.05,18,6,21,0.10
2013-5-19,58.4,47.7,36.2,38.5,34.0,30.7,81,61,37,30.30,30.21,18,7,227,0.37
2013-5-20,73.8,54.5,35.5,42.7,34.0,26.8,81,52,19,30.27,29.91,12,4,19,0.00
2013-5-21,53.2,45.5,32.3,40.6,30.9,20.6,81,57,34,29.92,29.76,25,9,38,0.02
2013-5-22,42.8,36.5,30.2,30.5,25.9,19.3,78,65,54,29.94,29.87,20,6,27,1.28
2013-5-23,52.8,42.4,31.7,31.5,26.6,18.8,77,56,28,29.99,29.90,17,6,21,0.00
2013-5-24,53.5,44.9,38.1,32.9,30.2,26.0,76,58,38,30.03,29.94,19,7,24,0.00
2013-5-25,59.6,46.6,32.0,42.6,32.6,26.1,86,62,34,30.03,29.93,13,5,18,0.02
2013-5-26,57.2,45.7,-39.5,51.0,35.9,-51.4,100,71,41,30.04,29.94,20,3,23,0.12
2013-5-27,55.1,47.5,42.1,45.8,39.7,34.4,85,75,67,30.00,29.81,20,7,33,0.04
2013-5-28,59.8,51.3,42.8,40.6,35.8,31.1,80,57,34,29.92,29.78,20,8,25,0.03
2013-5-29,53.7,48.1,42.5,43.2,37.7,33.4,89,68,49,30.00,29.72,23,9,30,0.09
2013-5-30,56.5,45.9,34.2,35.2,32.0,28.6,82,60,40,30.19,29.99,18,5,27,0.00
2013-5-31,66.3,50.8,32.2,66.1,32.0,26.3,100,53,23,30.25,30.17,13,5,20,0.69
2013-6-1,71.2,57.6,40.0,45.2,37.4,30.5,76,50,27,30.23,30.03,20,6,73,0.55
2013-6-2,66.9,54.8,42.3,44.9,37.7,26.4,85,57,22,30.07,29.97,24,7,227,0.00
2013-6-3,72.5,56.6,37.0,40.7,33.1,26.3,81,47,22,30.09,30.00,16,5,227,0.69
2013-6-4,74.2,60.9,42.8,38.0,32.9,27.1,61,37,22,30.23,30.05,18,6,19,0.58
2013-6-5,81.4,66.0,49.7,47.9,40.5,36.1,62,42,22,30.13,30.01,19,7,25,0.00
2013-6-6,82.7,67.6,52.9,52.8,47.2,42.7,74,51,25,30.08,29.99,18,6,34,0.00
2013-6-7,77.8,66.1,53.8,51.0,47.2,41.2,82,54,27,30.13,30.05,21,6,73,0.00
2013-6-8,82.1,66.8,49.6,49.5,41.0,25.9,81,45,15,30.14,30.05,21,7,31,0.00
2013-6-9,63.3,57.7,51.8,43.9,39.6,33.3,65,52,33,30.08,29.96,17,5,17,0.00
2013-6-10,73.3,58.1,40.9,38.2,33.5,25.7,73,44,21,29.98,29.82,17,6,26,0.00
2013-6-11,59.4,50.5,39.9,37.2,33.7,29.9,76,54,33,30.09,29.91,20,6,29,0.00
2013-6-12,58.0,46.9,33.1,35.8,32.3,27.0,80,58,38,30.11,30.05,20,6,29,0.00
2013-6-13,55.0,45.4,36.0,38.2,33.7,28.9,79,64,43,30.23,30.10,17,4,22,0.00
2013-6-14,67.9,52.9,34.1,37.5,31.8,28.3,84,50,24,30.23,30.02,12,5,16,0.00
2013-6-15,77.7,60.9,41.4,46.8,36.7,29.3,69,44,19,30.04,29.91,20,5,31,0.00
2013-6-16,75.5,62.1,49.6,52.1,44.4,37.1,76,55,26,30.12,30.00,25,6,28,0.03
2013-6-17,73.3,60.3,44.3,46.8,42.9,39.3,84,56,30,30.12,29.93,21,6,22,0.00
2013-6-18,56.3,50.9,45.5,44.6,41.2,35.7,85,70,46,29.99,29.88,23,5,28,0.04
2013-6-19,55.9,47.8,39.8,39.6,35.8,32.6,83,64,44,30.07,29.90,22,6,24,0.01
2013-6-20,57.9,47.8,37.7,38.0,34.1,31.5,80,61,39,30.11,30.01,25,6,26,0.00
2013-6-21,56.3,48.9,39.5,40.4,37.6,33.2,81,66,50,30.15,30.09,19,6,25,0.00
2013-6-22,73.1,57.5,38.5,44.4,39.8,34.0,84,56,30,30.14,29.94,12,6,18,0.00
2013-6-23,60.3,56.1,52.3,53.2,48.7,41.8,91,77,54,29.95,29.74,12,4,14,0.63
2013-6-24,58.0,52.5,47.8,50.3,46.1,43.3,90,79,64,29.81,29.71,11,5,18,0.08
2013-6-25,61.4,55.1,50.3,50.0,46.3,44.3,87,72,59,29.94,29.77,24,6,27,0.10
2013-6-26,63.2,56.9,50.1,55.8,50.3,45.0,85,79,71,30.13,29.93,11,4,21,0.08
2013-6-27,79.5,64.8,47.8,55.1,51.2,44.7,89,64,37,30.23,30.10,16,6,23,0.00
2013-6-28,86.3,71.5,54.2,60.0,54.7,49.3,85,59,33,30.26,30.10,16,5,28,0.00
2013-6-29,81.7,72.6,60.6,58.6,55.6,53.3,79,57,40,30.16,30.07,20,7,28,0.00
2013-6-30,90.0,75.0,57.2,57.7,53.9,49.7,78,51,29,30.13,29.98,23,7,25,0.00
2013-7-1,92.1,79.9,69.6,58.3,55.5,52.8,61,44,27,30.14,30.02,17,6,27,0.00
2013-7-2,94.9,79.3,64.8,61.7,56.6,46.0,82,50,19,30.16,30.06,14,5,36,0.32
2013-7-3,86.3,75.2,62.9,60.5,53.0,40.6,79,49,28,30.16,30.05,21,6,29,0.00
2013-7-4,76.8,61.1,27.9,69.0,38.4,13.8,100,51,20,30.10,29.98,227,6,227,0.00
2013-7-5,74.3,62.2,48.9,44.7,37.1,27.1,81,44,22,30.02,29.92,19,6,24,0.00
2013-7-6,78.2,60.6,42.5,45.2,35.7,29.7,69,43,19,29.98,29.88,18,6,25,0.00
2013-7-7,81.8,67.4,50.2,50.4,43.4,38.2,70,45,24,29.99,29.88,17,5,24,0.00
2013-7-8,81.3,63.9,51.1,48.2,41.7,33.6,76,50,20,30.12,29.98,14,5,20,0.00
2013-7-9,89.6,61.4,37.7,89.6,43.4,36.5,100,59,16,30.16,30.03,21,3,227,0.32
2013-7-10,77.5,64.1,59.1,52.6,50.2,48.5,69,61,36,30.12,30.06,16,6,18,0.00
2013-7-12,74.1,64.6,50.8,43.0,36.2,27.9,72,37,19,30.08,29.95,19,6,25,0.00
2013-7-13,74.4,59.9,42.1,39.3,33.1,26.0,74,41,19,30.16,30.06,19,6,22,0.00
2013-7-14,83.5,68.3,49.1,44.3,34.1,23.1,41,29,19,30.16,30.00,21,6,27,0.00
2013-7-15,81.9,68.3,53.5,46.1,39.5,34.5,63,38,20,30.06,29.91,22,7,26,0.00
2013-7-16,79.1,69.0,62.1,46.4,37.1,29.6,42,31,25,30.04,29.92,22,8,27,0.00
2013-7-17,83.3,70.4,57.0,46.4,39.8,33.5,65,36,17,30.19,30.03,23,9,30,0.00
2013-7-18,87.5,71.3,53.4,49.8,40.6,34.1,61,37,16,30.21,30.07,26,6,29,0.00
2013-7-19,87.7,74.1,54.8,48.8,35.9,28.2,50,28,13,30.16,30.03,19,6,28,0.00
2013-7-20,88.5,72.4,55.7,48.1,40.8,26.8,63,36,11,30.09,29.97,23,6,25,0.32
2013-7-21,89.7,72.3,53.8,83.0,39.2,23.0,100,38,9,30.02,29.93,22,8,227,1.20
2013-7-22,88.9,77.4,53.4,43.7,36.2,27.9,61,26,12,30.08,30.00,18,5,24,0.00
2013-7-23,90.7,73.2,-11.2,53.4,40.8,-11.2,100,36,15,30.10,30.00,16,3,227,0.32
2013-7-24,88.1,74.3,59.0,48.2,39.6,30.5,55,32,15,30.20,30.05,13,3,16,0.32
2013-7-25,89.9,76.3,59.3,48.2,39.6,29.2,57,30,12,30.16,30.07,19,6,25,0.00
2013-7-26,89.6,76.4,61.7,44.3,36.5,27.4,40,25,15,30.19,30.08,22,6,35,0.00
2013-7-27,80.2,68.5,54.4,42.2,35.8,26.9,55,32,15,30.17,30.00,22,6,28,0.00
2013-7-28,58.7,58.3,58.0,37.5,37.5,37.4,46,46,45,30.03,30.02,2,0,7,0.00
2013-7-30,81.1,40.3,-33.3,45.1,17.1,-33.3,100,53,15,30.15,30.07,18,2,21,0.16
2013-7-31,75.4,1.6,-33.3,44.3,-7.6,-33.3,100,79,28,30.15,30.09,11,1,12,0.16
2013-8-1,61.6,55.8,52.9,50.1,44.9,43.0,69,67,65,30.08,30.06,10,1,14,1.52
2013-8-2,68.5,58.3,44.2,42.9,40.6,38.1,83,55,35,30.12,30.07,17,6,227,1.07
2013-8-3,78.6,66.0,2.7,48.2,37.0,2.7,100,40,21,30.14,30.03,16,2,16,0.00
2013-8-4,83.2,75.0,20.6,49.0,44.3,20.6,100,35,23,30.11,29.98,18,4,28,0.00
2013-8-5,83.1,74.7,55.5,50.5,44.7,36.9,67,37,20,30.21,29.99,16,5,36,0.00
2013-8-6,86.2,76.6,53.6,51.6,43.0,38.3,70,34,19,30.09,29.98,19,6,55,0.00
2013-8-7,69.6,68.8,66.9,43.1,40.4,39.4,42,36,34,30.08,30.04,11,6,16,0.00
2013-8-8,78.5,59.9,-38.8,66.6,38.9,-49.2,100,51,24,30.06,29.97,12,3,21,0.00
2013-8-9,78.1,62.0,-46.4,60.1,44.5,-56.7,100,55,29,30.11,29.93,18,3,28,0.02
2013-8-10,70.1,58.8,49.4,56.7,47.9,44.2,83,68,47,30.11,30.00,22,5,27,0.14
2013-8-11,76.6,62.0,49.6,49.7,46.0,40.1,81,59,28,30.23,30.01,17,3,23,0.00
2013-8-12,80.4,57.9,-31.6,72.6,41.9,-31.6,100,61,27,30.09,30.00,16,3,21,0.00
2013-8-13,83.2,71.6,51.9,81.2,49.6,36.0,100,52,24,30.14,30.01,24,3,228,0.00
2013-8-14,85.6,41.9,15.8,82.7,31.1,-15.4,100,78,23,30.06,29.96,15,1,227,0.00
2013-8-15,15.8,-80.4,-100.0,15.8,-80.3,-100.0,100,100,100,30.05,29.96,0,0,227,0.00
2013-8-16,81.0,47.0,-100.0,80.9,35.9,-100.0,100,75,33,30.11,30.03,0,0,2,0.00
2013-8-17,81.1,80.9,80.7,80.9,76.2,50.5,100,90,35,30.14,30.03,0,0,0,0.00
2013-8-18,80.8,-1.5,-40.6,50.6,-11.4,-40.6,100,79,34,30.16,30.07,0,0,0,0.00
2013-8-19,84.0,-6.5,-40.6,83.7,-11.2,-40.6,100,91,27,30.15,30.03,0,0,0,0.00
2013-8-20,80.1,19.9,-22.5,79.9,5.0,-22.5,100,71,18,30.18,30.08,0,0,3,0.00
2013-8-21,73.8,69.5,64.5,37.1,36.0,34.8,35,29,25,29.84,29.79,11,4,13,0.03
2013-8-22,78.8,65.8,57.7,54.3,43.3,35.5,77,45,34,29.87,29.81,29,7,38,0.01
2013-8-23,79.3,68.4,53.3,50.7,48.8,44.1,80,52,30,29.85,29.73,21,8,24,0.00
2013-8-24,75.6,62.5,51.3,52.4,48.8,45.1,88,64,34,29.82,29.68,18,5,22,0.00
2013-8-25,70.3,58.3,50.9,58.7,50.4,47.5,93,76,48,29.89,29.72,31,5,40,0.17
2013-8-26,73.7,60.3,49.5,53.1,47.4,43.1,91,66,35,29.91,29.86,19,7,22,0.00
2013-8-27,82.8,62.0,48.1,52.6,45.9,34.4,86,61,18,29.90,29.69,18,6,25,0.00
2013-8-28,82.3,67.4,53.1,53.8,47.0,37.6,86,54,22,29.81,29.73,22,8,29,0.00
2013-8-29,79.0,66.7,57.4,52.9,49.2,43.1,78,56,30,29.97,29.78,26,7,27,0.00
2013-8-30,81.0,65.7,52.8,54.8,49.9,40.7,89,61,24,30.04,29.91,19,6,24,0.00
2013-8-31,86.0,67.3,51.0,52.7,49.7,46.0,88,58,25,29.97,29.75,19,6,21,0.00
2013-9-1,67.5,59.2,54.1,49.5,47.4,46.2,79,66,51,29.79,29.76,13,5,16,0.00
2013-9-4,82.7,70.0,58.2,49.5,44.3,29.7,71,43,15,30.14,30.04,26,8,27,0.00
2013-9-5,69.8,58.1,52.2,51.5,47.2,40.6,85,68,42,30.21,30.00,34,7,45,0.00
2013-9-6,68.9,57.2,49.0,49.3,46.4,43.8,89,69,45,30.30,30.20,24,8,25,0.01
2013-9-7,76.0,60.1,43.3,49.2,46.2,41.6,96,65,33,30.29,30.12,18,6,19,0.00
2013-9-8,72.7,60.9,49.7,51.5,47.2,42.9,85,63,35,30.21,30.17,19,6,23,0.00
2013-9-9,80.2,64.9,48.5,47.9,42.4,31.4,78,49,18,30.21,30.07,20,8,23,0.00
2013-9-10,82.6,68.3,51.9,49.4,43.8,40.5,68,44,23,30.11,30.01,16,6,19,0.00
2013-9-11,85.2,71.1,53.8,51.1,45.0,39.2,66,42,20,30.14,30.05,17,6,23,0.00
2013-9-12,87.0,73.5,57.7,49.8,44.0,38.9,56,37,19,30.11,29.97,16,6,18,0.00
2013-9-13,79.9,70.0,57.7,47.9,44.1,38.5,63,41,24,30.02,29.80,17,6,18,0.00
2013-9-14,85.6,69.8,55.2,51.1,46.8,43.0,70,48,23,29.83,25.95,17,7,19,0.00
2013-9-15,86.2,69.3,56.8,50.6,43.4,25.3,69,44,11,29.72,26.01,27,8,28,0.00
2013-9-16,67.7,57.5,47.7,46.7,44.7,41.4,84,63,45,29.83,29.71,18,7,22,0.00
2013-9-17,55.4,49.2,42.8,49.2,43.1,39.6,91,80,65,29.97,29.74,16,4,21,0.37
2013-9-18,64.2,49.6,37.9,41.6,36.9,32.9,94,66,33,30.09,29.97,13,4,14,0.00
2013-9-19,78.3,56.9,37.5,39.9,34.0,27.6,83,49,16,30.05,29.79,20,5,22,0.00
2013-9-20,74.8,55.9,40.7,46.2,36.7,29.1,84,53,19,29.80,29.51,22,8,28,0.02
2013-9-21,59.9,51.4,44.9,44.7,40.8,38.7,83,68,46,29.75,29.60,20,7,24,0.00
2013-9-22,57.7,49.3,44.0,46.9,41.4,37.7,84,75,56,29.84,29.72,26,11,34,0.00
2013-9-23,61.9,53.8,49.5,44.9,41.3,37.4,72,63,45,29.95,29.84,29,9,31,0.00
2013-9-24,52.8,47.5,41.5,42.5,38.9,34.3,85,72,54,29.91,29.79,23,7,28,0.00
2013-9-25,49.5,42.5,35.4,37.2,34.3,30.2,90,73,51,30.00,29.78,24,6,26,0.00
2013-9-26,51.6,41.5,31.7,37.5,33.0,28.6,90,73,49,30.18,30.00,17,6,21,0.00
2013-9-27,59.4,45.3,33.1,44.1,35.8,24.4,90,72,26,30.18,30.01,26,11,30,0.00
2013-9-28,61.6,53.0,46.2,48.3,45.0,41.3,93,75,50,30.01,29.55,45,13,47,0.54
2013-9-29,50.0,45.0,40.8,47.8,41.5,38.0,94,88,75,29.71,29.52,29,10,35,1.28
2013-9-30,51.0,44.5,37.7,47.5,36.1,31.6,93,73,57,30.01,29.57,36,10,37,0.08
2013-10-1,49.5,41.6,33.1,39.0,32.1,24.8,86,70,43,30.19,29.99,25,8,28,0.00
2013-10-2,48.4,37.5,28.0,34.8,30.5,26.0,93,77,46,30.20,30.06,17,5,18,0.00
2013-10-3,48.7,38.9,29.9,33.6,31.0,27.6,95,75,51,30.46,30.16,19,5,19,0.00
2013-10-4,57.1,42.8,30.0,34.1,28.8,24.9,90,62,30,30.54,30.42,17,5,18,0.00
2013-10-5,73.0,56.8,34.4,34.5,28.5,20.3,74,38,14,30.40,30.22,18,6,21,0.00
2013-10-6,73.5,54.7,39.5,35.7,30.5,24.4,64,43,19,30.22,29.94,25,9,28,0.00
2013-10-7,53.0,46.9,35.3,38.7,31.4,24.6,85,56,44,30.07,29.90,30,8,30,0.00
2013-10-8,48.3,40.5,33.1,39.1,34.1,29.4,94,79,57,30.09,29.94,17,6,20,0.00
2013-10-9,41.7,37.5,34.5,35.6,33.5,31.4,95,86,74,30.07,29.98,20,7,23,0.02
2013-10-10,54.3,41.9,32.8,35.3,32.6,30.5,91,72,46,30.07,29.95,23,7,27,0.00
2013-10-11,51.2,40.7,31.8,36.8,33.2,29.2,91,76,53,30.14,30.06,17,7,20,0.00
2013-10-12,46.4,39.3,33.4,37.2,33.9,30.3,92,81,64,30.17,30.03,13,5,15,0.00
2013-10-13,47.9,41.7,36.3,37.9,35.6,32.0,94,80,57,30.32,30.16,14,5,15,0.00
2013-10-14,52.1,40.6,29.6,35.9,31.1,27.1,91,71,45,30.42,30.32,17,6,19,0.00
2013-10-15,59.9,43.6,27.8,32.0,28.2,23.0,85,57,30,30.41,30.19,14,4,16,0.00
2013-10-16,62.0,45.2,33.5,31.4,27.5,23.0,74,53,25,30.20,30.10,23,8,25,0.00
2013-10-17,58.6,44.7,31.9,36.8,31.4,27.8,86,62,34,30.27,30.19,13,5,15,0.00
2013-10-18,62.2,45.8,32.1,37.8,33.4,27.8,85,64,36,30.28,30.17,13,5,15,0.00
2013-10-19,73.1,51.7,37.0,35.4,31.2,23.7,81,52,17,30.19,30.08,27,8,28,0.00
2013-10-20,67.6,50.3,34.2,35.5,31.3,27.4,77,51,25,30.16,30.08,17,6,18,0.00
2013-10-21,67.7,51.4,36.1,38.3,33.9,29.6,78,54,29,30.17,30.09,14,6,16,0.00
2013-10-22,69.5,50.4,34.7,39.8,35.3,30.0,83,60,30,30.16,30.04,16,6,18,0.00
2013-10-23,66.2,49.6,35.5,41.3,36.1,31.1,85,62,35,30.09,30.01,19,6,19,0.00
2013-10-24,67.9,49.6,35.4,41.7,37.1,32.0,88,66,32,30.12,30.01,18,6,21,0.00
2013-10-25,72.4,51.1,37.6,40.1,34.6,26.5,81,57,19,30.23,30.12,22,7,25,0.00
2013-10-26,68.1,48.7,35.4,39.1,33.8,29.6,81,59,25,30.25,30.08,21,8,23,0.00
2013-10-27,51.8,38.9,34.4,41.1,34.4,25.2,97,85,36,30.11,29.72,38,10,38,0.27
2013-10-28,38.6,33.1,29.9,37.8,28.0,20.9,98,82,62,29.99,29.77,32,12,36,0.03
2013-10-29,45.2,34.4,27.2,26.4,22.1,18.5,86,62,43,30.10,29.99,15,4,17,0.00
2013-10-30,55.4,41.2,30.3,34.8,30.2,25.8,87,67,36,30.19,30.09,19,8,23,0.00
2013-10-31,58.2,48.0,40.7,47.4,40.5,33.6,92,75,63,30.24,30.13,24,8,27,0.00
2013-11-1,56.3,44.1,35.2,44.3,39.7,34.2,97,85,63,30.26,29.95,24,8,26,0.00
2013-11-2,46.4,40.5,31.2,41.8,33.4,24.5,92,76,51,30.06,29.76,32,11,41,0.05
2013-11-3,41.1,35.0,31.2,30.2,27.8,23.5,91,76,50,30.15,30.01,20,8,23,0.00
2013-11-4,45.8,38.3,32.7,32.4,30.1,25.7,85,73,45,30.19,30.10,21,6,23,0.00
2013-11-5,48.7,42.7,37.7,42.3,37.9,31.7,90,83,74,30.24,30.12,30,13,30,0.00
2013-11-6,53.9,48.6,44.5,46.4,43.9,41.8,92,84,75,30.27,30.09,22,7,23,0.00
2013-11-7,52.3,44.0,36.8,44.9,37.4,25.9,89,78,55,30.10,29.84,36,10,38,0.11
2013-11-8,44.1,37.9,31.0,32.7,30.6,27.9,89,75,61,30.19,30.08,18,6,22,0.00
2013-11-9,54.8,39.6,29.2,37.3,31.5,26.8,92,74,46,30.15,30.08,16,5,19,0.00
2013-11-10,61.7,46.8,36.9,42.2,37.0,32.7,89,71,35,30.15,30.06,17,6,21,0.00
2013-11-11,39.5,36.2,34.0,37.0,34.7,31.4,98,94,86,30.28,30.14,10,2,10,0.00
2013-11-12,56.7,45.1,35.1,46.6,39.1,33.1,97,81,58,30.39,30.25,21,6,25,0.03
2013-11-13,57.2,42.0,31.7,40.8,33.1,27.0,97,74,34,30.44,30.25,16,5,16,0.00
2013-11-14,46.4,36.0,29.3,28.9,26.5,21.6,86,69,38,30.25,30.06,22,7,23,0.00
2013-11-15,41.1,34.1,28.0,29.3,26.3,23.1,88,74,56,30.08,29.60,31,10,34,0.00
2013-11-16,42.1,38.8,35.3,31.3,28.9,25.0,82,68,52,29.83,29.50,30,13,38,0.00
2013-11-17,44.8,39.4,35.0,32.5,30.0,27.6,79,69,54,30.04,29.83,27,12,31,0.00
2013-11-18,48.5,42.4,38.1,37.9,32.6,28.3,90,69,55,30.02,29.79,31,10,34,0.04
2013-11-19,46.1,42.0,38.7,42.4,39.1,36.0,93,89,83,29.83,29.76,34,12,34,0.20
2013-11-20,40.2,29.0,19.6,38.1,18.8,-2.9,94,67,36,30.42,29.83,21,9,23,0.01
2013-11-21,30.4,21.9,14.0,7.6,1.7,-3.2,71,42,30,30.77,30.42,18,5,19,0.00
2013-11-22,34.7,21.5,11.5,12.1,9.0,4.9,78,60,35,30.82,30.70,14,5,17,0.00
2013-11-23,37.4,24.5,12.0,24.0,14.1,8.0,86,66,42,30.70,30.42,9,3,10,0.00
2013-11-24,55.5,35.7,22.6,21.1,17.5,10.6,76,52,17,30.42,30.29,20,6,24,0.00
2013-11-25,54.2,36.7,27.0,22.6,20.0,13.9,71,53,20,30.41,30.34,19,5,19,0.00
2013-11-26,50.0,39.3,29.0,23.5,21.4,19.0,71,50,32,30.31,30.19,22,5,22,0.00
2013-11-27,44.8,36.5,27.2,26.5,24.5,21.5,81,62,47,30.13,30.06,10,3,12,0.00
2013-11-28,56.8,39.0,25.0,29.5,26.2,21.3,87,63,32,30.22,30.15,16,6,20,0.00
2013-11-29,54.8,44.9,29.0,29.0,26.5,23.6,80,51,33,30.31,30.24,21,7,26,0.00
2013-11-30,54.6,45.7,37.2,37.4,35.3,33.4,87,68,50,30.35,30.26,16,7,18,0.00
2013-12-1,49.1,47.5,44.3,44.7,41.3,36.9,89,79,64,30.14,29.81,37,16,40,0.00
2013-12-2,48.5,35.9,25.6,37.9,29.2,17.2,93,77,55,29.94,29.74,34,7,39,0.17
2013-12-3,26.9,19.7,14.2,21.6,14.3,5.5,91,79,64,30.29,29.94,21,7,25,0.00
2013-12-4,18.5,12.3,2.5,5.7,2.6,-2.2,82,65,52,30.42,30.29,17,6,17,0.00
2013-12-5,24.7,11.0,0.4,8.5,3.5,-3.4,87,73,44,30.42,30.28,19,5,20,0.00
2013-12-6,9.5,8.1,7.1,6.2,5.1,3.9,91,87,83,30.28,30.10,19,5,19,0.00
2013-12-7,12.4,2.0,-5.7,10.3,-2.5,-10.0,93,81,68,30.56,30.26,24,8,25,0.00
2013-12-8,21.3,4.8,-7.1,10.3,-1.0,-11.3,86,77,57,30.77,30.56,27,10,32,0.00
2013-12-9,31.9,18.8,5.4,21.7,10.8,0.3,83,71,55,30.77,30.54,30,13,33,0.00
2013-12-10,38.0,27.8,22.0,25.0,18.9,14.5,89,70,49,30.54,30.42,28,10,28,0.00
2013-12-11,42.3,32.9,20.2,28.0,24.4,17.2,89,71,56,30.45,30.33,17,7,20,0.00
2013-12-12,44.2,33.2,22.8,31.2,23.6,17.6,86,69,44,30.33,30.17,27,12,29,0.00
2013-12-13,47.6,38.0,30.4,34.9,31.6,27.4,92,78,60,30.44,30.25,19,8,22,0.00
2013-12-14,46.4,39.5,29.8,31.8,29.4,26.7,89,69,53,30.49,30.42,31,12,36,0.00
2013-12-15,57.8,45.3,35.8,40.3,31.3,23.4,82,59,35,30.45,30.34,30,10,32,0.00
2013-12-16,55.8,40.3,30.3,33.0,26.9,24.4,84,61,32,30.44,30.32,25,10,26,0.00
2013-12-17,57.0,43.6,32.1,27.9,24.1,19.6,68,48,26,30.32,30.09,30,12,32,0.00
2013-12-18,40.8,36.1,29.8,32.0,27.7,23.8,95,72,55,30.09,29.90,18,6,22,0.00
2013-12-19,30.4,24.4,18.3,26.4,15.1,9.4,90,68,46,30.28,30.00,19,6,21,0.00
2013-12-20,45.2,33.2,20.1,38.0,25.1,9.2,83,72,49,30.22,29.89,26,12,34,0.01
2013-12-21,51.6,42.8,37.6,35.9,32.6,28.0,82,68,43,30.15,29.91,25,6,34,0.00
2013-12-22,51.0,44.9,39.3,38.8,34.5,31.4,82,67,52,30.32,30.21,26,9,29,0.00
2013-12-23,52.6,46.2,40.2,40.2,32.9,27.0,74,60,49,30.37,30.23,34,12,47,0.00
2013-12-24,50.0,38.8,28.5,32.1,26.9,20.1,91,64,34,30.54,30.47,16,5,18,0.00
2013-12-25,48.5,39.7,30.4,27.6,25.3,22.9,77,58,38,30.49,30.42,32,11,32,0.00
2013-12-26,59.3,45.9,33.1,30.2,25.6,22.9,67,46,27,30.39,30.26,30,8,31,0.00
2013-12-27,51.2,41.8,34.4,26.5,23.9,21.5,65,49,34,30.30,30.16,26,9,28,0.00
2013-12-28,45.4,34.3,25.8,24.8,19.2,15.0,79,57,30,30.50,30.34,13,6,14,0.00
2013-12-29,46.6,36.3,25.3,19.5,17.1,14.1,67,47,27,30.46,30.35,24,10,27,0.00
2013-12-30,44.5,41.3,34.6,25.7,21.0,14.9,55,44,31,30.27,30.19,27,10,27,0.00
2013-12-31,52.9,44.2,36.8,25.3,21.7,18.5,58,42,28,30.31,30.21,22,7,24,0.00
2014-1-1,53.5,38.2,29.8,35.0,28.2,23.0,80,68,44,30.38,30.29,17,7,19,0.00
2014-1-2,58.8,43.9,32.2,33.6,29.1,26.7,81,59,36,30.32,30.03,26,11,30,0.00